Location: Tierra del Sol
(32.6128°N, 116.3319°W)
Time: 02:56:22
(UTC-07:00)

Vanguard 1 - Visible Passes

Search period start: 23 October 2017 00:00
Search period end: 02 November 2017 00:00
Orbit: 650 x 3834 km, 34.3° (Epoch: 21 October)

Date Brightness Start Highest point End Pass type
(mag) Time Alt. Az. Time Alt. Az. Time Alt. Az.
23 Oct 13.0 01:42:38 46° E 01:42:38 46° E 01:56:40 10° E visible
23 Oct 12.4 03:55:21 59° WNW 04:01:24 90° SSW 04:25:32 10° ESE visible
23 Oct 13.1 06:08:04 11° WNW 06:28:44 61° SSW 06:50:06 10° SE visible
24 Oct 12.8 02:02:33 55° E 02:02:33 55° E 02:18:49 10° E visible
24 Oct 12.5 04:15:16 50° W 04:23:15 84° SSW 04:47:14 10° ESE visible
24 Oct 13.2 06:29:23 10° WNW 06:50:03 52° SW 07:10:37 10° SSE visible
25 Oct 13.9 00:09:47 13° ENE 00:09:47 13° ENE 00:11:21 10° ENE visible
25 Oct 12.6 02:22:30 64° E 02:22:30 64° E 02:40:59 10° E visible
25 Oct 12.6 04:35:14 42° W 04:45:00 77° SSW 05:08:43 10° ESE visible
26 Oct 13.8 00:29:46 18° ENE 00:29:46 18° ENE 00:33:24 10° E visible
26 Oct 12.4 02:42:30 74° E 02:42:30 74° E 03:03:06 10° E visible
26 Oct 12.8 04:55:14 35° W 05:06:38 69° SSW 05:29:54 10° SE visible
27 Oct 13.6 00:49:48 22° E 00:49:48 22° E 00:55:32 10° E visible
27 Oct 12.3 03:02:32 84° ESE 03:02:32 84° ESE 03:25:05 10° ESE visible
27 Oct 12.9 05:15:16 28° W 05:28:09 60° SSW 05:50:47 10° SE visible
28 Oct 13.4 01:09:52 28° E 01:09:52 28° E 01:17:42 10° E visible
28 Oct 12.3 03:22:36 82° SW 03:23:14 83° SSW 03:46:53 10° ESE visible
28 Oct 13.0 05:35:20 22° W 05:49:33 51° SW 06:11:19 10° SSE visible
29 Oct 13.3 01:29:58 33° E 01:29:58 33° E 01:39:54 10° E visible
29 Oct 12.3 03:42:42 71° WSW 03:44:52 76° SSW 04:08:27 10° ESE visible
29 Oct 13.2 05:55:27 16° W 06:10:51 42° SW 06:31:27 10° SSE visible
29 Oct 12.3 20:50:37 10° SSW 20:50:46 11° SSW 20:50:46 11° SSW visible
30 Oct 13.1 01:50:06 40° E 01:50:06 40° E 02:02:03 10° E visible
30 Oct 12.3 04:02:51 60° WSW 04:06:27 67° SSW 04:29:42 10° SE visible
30 Oct 13.4 06:15:35 11° W 06:32:06 33° SW 06:51:03 10° SSE visible
31 Oct 12.9 02:10:16 46° ESE 02:10:16 46° ESE 02:24:06 10° ESE visible
31 Oct 12.5 04:23:00 49° WSW 04:27:57 58° SSW 04:50:38 10° SE visible
31 Oct 13.5 06:38:04 10° W 06:53:20 25° SW 07:09:57 10° S visible
31 Oct 11.7 19:16:25 10° SSE 19:18:14 12° SE 19:18:14 12° SE visible
01 Nov 12.7 02:30:26 52° ESE 02:30:26 52° ESE 02:45:56 10° ESE visible
01 Nov 12.6 04:43:11 40° WSW 04:49:24 48° SSW 05:11:10 10° SSE visible
01 Nov 11.3 19:35:13 10° S 19:38:19 20° SSE 19:38:19 20° SSE visible
